Weather History for Savanna, IL

Change the Weather History Date:

Wednesday, June 19, 2013

  Actual Average (KCWI) Record (KCWI)
Temperature  
Mean Temperature 68 °F -  
Max Temperature 82 °F 83 °F 99 °F (1971)
Min Temperature 53 °F 60 °F 48 °F (1970)
Cooling Degree Days 2    
Growing Degree Days 18 (Base 50)    
Moisture  
Dew Point 51 °F    
Average Humidity 55    
Maximum Humidity 77    
Minimum Humidity 30    
Precipitation  
Precipitation 0.00 in - - ()
Sea Level Pressure  
Sea Level Pressure 30.09 in    
Wind  
Wind Speed 4 mph (ENE)    
Max Wind Speed 7 mph    
Max Gust Speed -    
Visibility 10 miles    
Events      
Averages and records for this station are not official NWS values.
T = Trace of Precipitation, MM = Missing Value Source: NWS Daily Summary

Daily Weather History Graph

Daily Weather History Graph

Search for Another Location

Airport:

Trip Planner

Search our weather history database for the weather conditions in past years. The results will help you decide how hot, cold, wet, or windy it might be!

Date:

Astronomy

Jun. 19, 2013 Rise Set
Actual Time 5:24 AM CDT 8:39 PM CDT
Civil Twilight 4:49 AM CDT 9:13 PM CDT
Nautical Twilight 4:05 AM CDT 9:58 PM CDT
Astronomical Twilight 3:11 AM CDT 10:52 PM CDT
Moon 4:29 PM CDT (6/19) 2:12 AM CDT (6/19)
Length of Visible Light 16h 23m
Length of Day
15h 14m
Waxing Gibbous, 80% of the Moon is Illuminated
Jun 19
Waxing Gibbous
Jun 23
Full
Jun 29
Last Quarter
Jul 8
New
Jul 15
First Quarter

Hourly Weather History & Observations

Time (CDT) Temp. Heat Index Dew Point Humidity Pressure Visibility Wind Dir Wind Speed Gust Speed Precip Events Conditions
12:16 AM 60.8 °F - 50.0 °F 68% 30.08 in 10.0 mi East 5.8 mph - N/A   Clear
12:36 AM 60.8 °F - 50.0 °F 68% 30.09 in 10.0 mi East 4.6 mph - N/A   Clear
12:57 AM 59.0 °F - 48.2 °F 67% 30.09 in 10.0 mi East 6.9 mph - N/A   Clear
1:16 AM 59.0 °F - 44.6 °F 59% 30.09 in 10.0 mi East 4.6 mph - N/A   Clear
1:36 AM 57.2 °F - 44.6 °F 63% 30.09 in 10.0 mi ENE 4.6 mph - N/A   Clear
1:56 AM 57.2 °F - 44.6 °F 63% 30.09 in 10.0 mi ENE 4.6 mph - N/A   Clear
2:16 AM 57.2 °F - 44.6 °F 63% 30.09 in 10.0 mi ENE 5.8 mph - N/A   Clear
2:36 AM 55.4 °F - 44.6 °F 67% 30.09 in 10.0 mi ENE 5.8 mph - N/A   Clear
3:16 AM 53.6 °F - 44.6 °F 72% 30.10 in 10.0 mi NE 3.5 mph - N/A   Clear
3:36 AM 55.4 °F - 44.6 °F 67% 30.10 in 10.0 mi NE 4.6 mph - N/A   Clear
3:56 AM 55.4 °F - 44.6 °F 67% 30.10 in 10.0 mi NE 3.5 mph - N/A   Clear
4:16 AM 53.6 °F - 44.6 °F 72% 30.10 in 10.0 mi ENE 4.6 mph - N/A   Clear
4:37 AM 53.6 °F - 44.6 °F 72% 30.10 in 10.0 mi NE 5.8 mph - N/A   Clear
4:58 AM 53.6 °F - 46.4 °F 77% 30.10 in 10.0 mi ENE 3.5 mph - N/A   Clear
5:36 AM 53.6 °F - 46.4 °F 77% 30.11 in 10.0 mi ENE 5.8 mph - N/A   Clear
5:56 AM 55.4 °F - 46.4 °F 72% 30.11 in 10.0 mi NE 6.9 mph - N/A   Clear
6:16 AM 55.4 °F - 46.4 °F 72% 30.12 in 10.0 mi ENE 5.8 mph - N/A   Clear
6:36 AM 57.2 °F - 46.4 °F 67% 30.12 in 10.0 mi Calm Calm - N/A   Clear
7:16 AM 60.8 °F - 46.4 °F 59% 30.13 in 10.0 mi Calm Calm - N/A   Clear
7:36 AM 62.6 °F - 48.2 °F 59% 30.13 in 10.0 mi East 4.6 mph - N/A   Clear
7:58 AM 64.4 °F - 48.2 °F 56% 30.13 in 10.0 mi East 3.5 mph - N/A   Clear
8:36 AM 66.2 °F - 50.0 °F 56% 30.14 in 10.0 mi Calm Calm - N/A   Clear
8:56 AM 66.2 °F - 51.8 °F 60% 30.14 in 10.0 mi South 3.5 mph - N/A   Clear
9:16 AM 69.8 °F - 51.8 °F 53% 30.14 in 10.0 mi Calm Calm - N/A   Clear
9:35 AM 69.8 °F - 51.8 °F 53% 30.13 in 10.0 mi SE 3.5 mph - N/A   Clear
9:56 AM 71.6 °F - 53.6 °F 53% 30.13 in 10.0 mi Calm Calm - N/A   Clear
10:15 AM 71.6 °F - 53.6 °F 53% 30.13 in 10.0 mi SSE 4.6 mph - N/A   Clear
10:39 AM 73.4 °F - 53.6 °F 50% 30.12 in 10.0 mi Calm Calm - N/A   Clear
10:55 AM 73.4 °F - 55.4 °F 53% 30.12 in 10.0 mi ENE 3.5 mph - N/A   Clear
11:35 AM 75.2 °F - 53.6 °F 47% 30.11 in 10.0 mi East 3.5 mph - N/A   Clear
12:16 PM 75.2 °F - 53.6 °F 47% 30.11 in 10.0 mi WSW 4.6 mph - N/A   Clear
12:36 PM 77.0 °F - 55.4 °F 47% 30.10 in 10.0 mi WSW 5.8 mph - N/A   Clear
1:15 PM 78.8 °F - 55.4 °F 44% 30.09 in 10.0 mi West 6.9 mph - N/A   Clear
1:37 PM 78.8 °F - 55.4 °F 44% 30.08 in 10.0 mi West 5.8 mph - N/A   Clear
2:16 PM 80.6 °F 80.5 °F 55.4 °F 42% 30.07 in 10.0 mi West 6.9 mph - N/A   Clear
2:56 PM 80.6 °F 80.3 °F 53.6 °F 39% 30.07 in 10.0 mi West 4.6 mph - N/A   Clear
3:17 PM 80.6 °F 80.3 °F 53.6 °F 39% 30.07 in 10.0 mi West 4.6 mph - N/A   Clear
3:37 PM 80.6 °F 80.3 °F 53.6 °F 39% 30.07 in 10.0 mi WNW 4.6 mph - N/A   Clear
3:56 PM 80.6 °F 80.3 °F 53.6 °F 39% 30.06 in 10.0 mi WSW 4.6 mph - N/A   Clear
4:38 PM 80.6 °F - 51.8 °F 37% 30.06 in 10.0 mi West 4.6 mph - N/A   Clear
5:17 PM 80.6 °F - 51.8 °F 37% 30.05 in 10.0 mi Calm Calm - N/A   Clear
5:38 PM 80.6 °F - 48.2 °F 32% 30.05 in 10.0 mi West 3.5 mph - N/A   Clear
5:55 PM 81.5 °F - 48.2 °F 31% 30.05 in 10.0 mi Calm Calm - N/A   Clear
5:57 PM 82.4 °F - 48.2 °F 30% 30.05 in 10.0 mi Calm Calm - N/A   Clear
6:15 PM 81.1 °F - 48.6 °F 32% 30.05 in 10.0 mi Calm Calm - N/A   Clear
6:35 PM 80.8 °F - 48.2 °F 32% 30.05 in 10.0 mi Calm Calm - N/A   Clear
6:55 PM 81.0 °F - 48.4 °F 32% 30.05 in 10.0 mi Calm Calm - N/A   Clear
7:15 PM 81.5 °F - 49.1 °F 32% 30.05 in 10.0 mi Calm Calm - N/A   Clear
7:35 PM 80.1 °F - 48.6 °F 33% 30.05 in 10.0 mi Calm Calm - N/A   Clear
7:55 PM 78.8 °F - 51.4 °F 38% 30.05 in 10.0 mi Calm Calm - N/A   Clear
8:15 PM 77.0 °F - 53.2 °F 44% 30.05 in 10.0 mi Calm Calm - N/A   Clear
8:35 PM 73.6 °F - 57.6 °F 57% 30.04 in 10.0 mi Calm Calm - N/A   Clear
8:55 PM 72.1 °F - 57.7 °F 60% 30.04 in 10.0 mi ENE 4.6 mph - N/A   Clear
9:15 PM 68.9 °F - 58.8 °F 70% 30.04 in 10.0 mi East 4.6 mph - N/A   Clear
9:35 PM 68.5 °F - 57.9 °F 69% 30.05 in 10.0 mi ENE 3.5 mph - N/A   Clear
9:55 PM 68.5 °F - 57.2 °F 67% 30.05 in 10.0 mi NE 4.6 mph - N/A   Clear
10:15 PM 67.3 °F - 59.0 °F 75% 30.06 in 10.0 mi NE 4.6 mph - N/A   Clear
10:35 PM 68.0 °F - 57.4 °F 69% 30.07 in 10.0 mi Calm Calm - N/A   Clear
10:55 PM 67.1 °F - 57.6 °F 71% 30.07 in 10.0 mi Calm Calm - N/A   Clear
11:15 PM 66.4 °F - 57.0 °F 72% 30.08 in 10.0 mi Calm Calm - N/A   Clear
11:35 PM 66.0 °F - 56.5 °F 71% 30.08 in 10.0 mi East 4.6 mph - N/A   Clear
11:55 PM 68.9 °F - 56.5 °F 65% 30.09 in 10.0 mi ESE 6.9 mph - N/A   Clear